Weather History for Spokane Fairchild, WA

Change the Weather History Date:

Sunday, November 10, 2013

  Actual Average Record
Temperature  
Mean Temperature 40 °F -  
Max Temperature 42 °F 43 °F 53 °F (1999)
Min Temperature 37 °F 29 °F 17 °F (2000)
Degree Days  
Heating Degree Days 26    
Moisture  
Dew Point 38 °F    
Average Humidity 96    
Maximum Humidity 100    
Minimum Humidity 87    
Precipitation  
Precipitation 0.00 in - - ()
Sea Level Pressure  
Sea Level Pressure 30.16 in    
Wind  
Wind Speed 5 mph (NNE)    
Max Wind Speed 8 mph    
Max Gust Speed -    
Visibility 9 miles    
Events      
Averages and records for this station are not official NWS values.
T = Trace of Precipitation, MM = Missing Value Source: NWS Daily Summary

Daily Weather History Graph

Daily Weather History Graph

Search for Another Location

Airport:

Trip Planner

Search our weather history database for the weather conditions in past years. The results will help you decide how hot, cold, wet, or windy it might be!

Date:

Astronomy

Nov. 10, 2013 Rise Set
Actual Time 6:48 AM PST 4:19 PM PST
Civil Twilight 6:15 AM PST 4:52 PM PST
Nautical Twilight 5:38 AM PST 5:29 PM PST
Astronomical Twilight 5:02 AM PST 6:05 PM PST
Moon 12:55 PM PST (11/10) No Moon Set
Length of Visible Light 10h 37m
Length of Day
9h 30m
First Quarter, 56% of the Moon is Illuminated
Nov 10
First Quarter
Nov 17
Full
Nov 25
Last Quarter
Dec 2
New
Dec 9
First Quarter

Hourly Weather History & Observations

Time (PST) Temp. Windchill Dew Point Humidity Pressure Visibility Wind Dir Wind Speed Gust Speed Precip Events Conditions
12:58 AM 37.8 °F 33.3 °F 37.2 °F 98% 30.17 in 10.0 mi North 5.8 mph - N/A   Overcast
1:58 AM 37.6 °F 34.0 °F 37.0 °F 98% 30.16 in 10.0 mi North 4.6 mph - N/A   Overcast
2:58 AM 37.6 °F 34.0 °F 37.0 °F 98% 30.15 in 10.0 mi NNE 4.6 mph - N/A   Overcast
3:28 AM 37.4 °F 33.8 °F 37.4 °F 100% 30.11 in 10.0 mi North 4.6 mph - N/A   Overcast
3:37 AM 37.4 °F 32.8 °F 37.4 °F 100% 30.10 in 9.0 mi North 5.8 mph - N/A   Overcast
3:58 AM 37.4 °F 33.8 °F 37.0 °F 99% 30.15 in 9.0 mi NNE 4.6 mph - N/A   Overcast
3:59 AM 37.4 °F 33.8 °F 37.4 °F 100% 30.10 in 10.0 mi NNE 4.6 mph - N/A   Overcast
4:04 AM 37.4 °F 32.8 °F 37.4 °F 100% 30.11 in 9.0 mi NNE 5.8 mph - N/A   Overcast
4:20 AM 37.4 °F 33.8 °F 37.4 °F 100% 30.10 in 10.0 mi NNE 4.6 mph - N/A   Overcast
4:29 AM 37.4 °F 32.8 °F 37.4 °F 100% 30.10 in 9.0 mi NE 5.8 mph - N/A   Overcast
4:58 AM 37.4 °F 33.8 °F 37.4 °F 100% 30.16 in 6.0 mi NNE 4.6 mph - N/A   Mostly Cloudy
5:10 AM 37.4 °F 33.8 °F 37.4 °F 100% 30.11 in 10.0 mi North 4.6 mph - N/A   Mostly Cloudy
5:58 AM 37.6 °F 33.1 °F 37.4 °F 99% 30.16 in 10.0 mi NNE 5.8 mph - N/A   Overcast
5:59 AM 37.4 °F 32.8 °F 37.4 °F 100% 30.10 in 10.0 mi NNE 5.8 mph - N/A   Overcast
6:20 AM 37.4 °F 32.8 °F 37.4 °F 100% 30.10 in 10.0 mi NE 5.8 mph - N/A   Overcast
6:30 AM 37.4 °F 32.8 °F 37.4 °F 100% 30.10 in 6.0 mi NE 5.8 mph - N/A   Overcast
6:40 AM 37.4 °F 32.8 °F 37.4 °F 100% 30.10 in 5.0 mi NNE 5.8 mph - N/A   Overcast
6:43 AM 37.4 °F 32.8 °F 37.4 °F 100% 30.11 in 4.0 mi NNE 5.8 mph - N/A   Overcast
6:53 AM 37.4 °F 32.8 °F 37.4 °F 100% 30.11 in 5.0 mi NNE 5.8 mph - N/A   Overcast
6:58 AM 37.6 °F 33.1 °F 37.4 °F 99% 30.17 in 6.0 mi North 5.8 mph - N/A   Overcast
7:44 AM 37.4 °F 32.8 °F 37.4 °F 100% 30.11 in 5.0 mi NE 5.8 mph - N/A   Overcast
7:53 AM 37.4 °F 32.8 °F 37.4 °F 100% 30.12 in 7.0 mi NE 5.8 mph - N/A   Overcast
7:58 AM 37.8 °F 33.3 °F 37.6 °F 99% 30.18 in 8.0 mi NNE 5.8 mph - 0.00 in   Overcast
8:33 AM 37.4 °F - 37.4 °F 100% 30.13 in 10.0 mi Variable 1.2 mph - N/A   Overcast
8:53 AM 39.2 °F - 37.4 °F 93% 30.13 in 10.0 mi North 2.3 mph - N/A   Overcast
8:58 AM 38.5 °F - 37.9 °F 98% 30.19 in 10.0 mi North 2.3 mph - N/A   Overcast
9:25 AM 39.2 °F 35.9 °F 37.4 °F 93% 30.13 in 10.0 mi Variable 4.6 mph - N/A   Overcast
9:27 AM 39.2 °F 35.0 °F 37.4 °F 93% 30.13 in 10.0 mi Variable 5.8 mph - N/A   Overcast
9:37 AM 39.2 °F 34.2 °F 37.4 °F 93% 30.13 in 10.0 mi NNE 6.9 mph - N/A   Overcast
9:58 AM 39.6 °F 36.3 °F 38.5 °F 96% 30.19 in 10.0 mi North 4.6 mph - 0.00 in   Overcast
10:13 AM 39.2 °F 35.9 °F 39.2 °F 100% 30.15 in 10.0 mi Variable 4.6 mph - N/A   Overcast
10:58 AM 40.3 °F 35.5 °F 38.3 °F 93% 30.20 in 10.0 mi NNE 6.9 mph - N/A   Overcast
11:23 AM 41.0 °F 37.1 °F 39.2 °F 93% 30.15 in 10.0 mi NNE 5.8 mph - N/A   Overcast
11:43 AM 41.0 °F 37.1 °F 39.2 °F 93% 30.15 in 10.0 mi NE 5.8 mph - N/A   Overcast
11:53 AM 41.0 °F 37.1 °F 39.2 °F 93% 30.15 in 10.0 mi Variable 5.8 mph - N/A   Overcast
11:58 AM 41.0 °F 38.0 °F 39.2 °F 93% 30.19 in 10.0 mi Variable 4.6 mph - N/A   Overcast
12:13 PM 41.0 °F 38.0 °F 39.2 °F 93% 30.14 in 10.0 mi North 4.6 mph - N/A   Overcast
12:23 PM 41.0 °F 37.1 °F 39.2 °F 93% 30.14 in 10.0 mi NNE 5.8 mph - N/A   Overcast
12:33 PM 41.0 °F 36.4 °F 39.2 °F 93% 30.14 in 10.0 mi NNE 6.9 mph - N/A   Overcast
12:58 PM 41.7 °F 37.3 °F 38.7 °F 89% 30.19 in 10.0 mi NE 6.9 mph - N/A   Overcast
1:58 PM 42.6 °F 37.8 °F 39.0 °F 87% 30.20 in 10.0 mi North 8.1 mph - N/A   Overcast
2:58 PM 41.9 °F 37.5 °F 38.8 °F 89% 30.20 in 10.0 mi North 6.9 mph - N/A   Overcast
3:13 PM 41.0 °F 35.8 °F 39.2 °F 93% 30.15 in 10.0 mi North 8.1 mph - N/A   Overcast
3:38 PM 41.0 °F 37.1 °F 39.2 °F 93% 30.16 in 10.0 mi North 5.8 mph - N/A   Overcast
3:58 PM 41.2 °F 36.6 °F 38.8 °F 91% 30.22 in 10.0 mi North 6.9 mph - N/A   Overcast
4:18 PM 41.0 °F 37.1 °F 39.2 °F 93% 30.16 in 10.0 mi North 5.8 mph - N/A   Overcast
4:58 PM 39.9 °F 35.8 °F 38.5 °F 95% 30.22 in 10.0 mi North 5.8 mph - N/A   Mostly Cloudy
5:52 PM 39.2 °F 35.0 °F 37.4 °F 93% 30.17 in 10.0 mi North 5.8 mph - N/A   Overcast
5:58 PM 39.0 °F 34.8 °F 37.4 °F 94% 30.23 in 10.0 mi North 5.8 mph - N/A   Overcast
6:58 PM 38.1 °F 33.7 °F 36.7 °F 95% 30.24 in 10.0 mi North 5.8 mph - N/A   Overcast
7:58 PM 37.8 °F 31.8 °F 36.1 °F 94% 30.25 in 10.0 mi NNW 8.1 mph - N/A   Overcast
8:58 PM 38.3 °F 33.2 °F 36.1 °F 92% 30.26 in 10.0 mi North 6.9 mph - N/A   Overcast
9:58 PM 38.3 °F 33.9 °F 36.5 °F 93% 30.27 in 10.0 mi NNW 5.8 mph - N/A   Overcast
10:58 PM 38.5 °F 35.0 °F 36.3 °F 92% 30.27 in 10.0 mi North 4.6 mph - N/A   Overcast
11:58 PM 38.5 °F 33.4 °F 36.1 °F 91% 30.28 in 10.0 mi North 6.9 mph - N/A   Overcast